Time,TemperatureF,DewpointF,PressureIn,WindDirection,WindDirectionDegrees,WindSpeedMPH,WindSpeedGustMPH,Humidity,HourlyPrecipIn,Conditions,Clouds,dailyrainin,SoftwareType,DateUTC
2013-02-11 00:00:00,33.5,32.7,30.06,North,0,0.0,0.0,97,0.00,,,0.00,LWC V2.00 B2112,2013-02-11 08:00:00,
2013-02-11 00:10:00,33.5,32.7,30.06,North,0,0.0,0.0,97,0.00,,,0.00,LWC V2.00 B2112,2013-02-11 08:10:00,
2013-02-11 00:20:00,33.5,32.7,30.06,North,0,0.0,0.0,97,0.00,,,0.00,LWC V2.00 B2112,2013-02-11 08:20:00,
2013-02-11 00:30:00,33.4,32.6,30.06,North,0,0.0,0.0,97,0.00,,,0.00,LWC V2.00 B2112,2013-02-11 08:30:00,
2013-02-11 00:40:00,33.4,32.6,30.06,North,0,0.0,0.0,97,0.00,,,0.00,LWC V2.00 B2112,2013-02-11 08:40:00,
2013-02-11 00:50:00,33.4,32.6,30.06,North,0,0.0,0.0,97,0.00,,,0.00,LWC V2.00 B2112,2013-02-11 08:50:00,
2013-02-11 01:00:00,33.6,32.8,30.06,North,0,0.0,0.0,97,0.00,,,0.00,LWC V2.00 B2112,2013-02-11 09:00:00,
2013-02-11 01:10:00,33.6,32.8,30.06,North,0,0.0,0.0,97,0.00,,,0.00,LWC V2.00 B2112,2013-02-11 09:10:00,
2013-02-11 01:20:00,33.6,32.8,30.06,North,0,0.0,0.0,97,0.00,,,0.00,LWC V2.00 B2112,2013-02-11 09:20:00,
2013-02-11 01:30:00,33.1,32.3,30.06,North,0,0.0,0.0,97,0.00,,,0.00,LWC V2.00 B2112,2013-02-11 09:30:00,
2013-02-11 01:40:00,33.1,32.3,30.06,North,0,0.0,0.0,97,0.00,,,0.00,LWC V2.00 B2112,2013-02-11 09:40:00,
2013-02-11 01:50:00,33.1,32.3,30.06,North,0,0.0,0.0,97,0.00,,,0.00,LWC V2.00 B2112,2013-02-11 09:50:00,
2013-02-11 02:00:00,32.6,31.8,30.06,North,0,0.0,0.0,97,0.00,,,0.00,LWC V2.00 B2112,2013-02-11 10:00:00,
2013-02-11 02:10:00,32.6,31.8,30.06,North,0,0.0,0.0,97,0.00,,,0.00,LWC V2.00 B2112,2013-02-11 10:10:00,
2013-02-11 02:20:00,32.6,31.8,30.06,North,0,0.0,0.0,97,0.00,,,0.00,LWC V2.00 B2112,2013-02-11 10:20:00,
2013-02-11 02:30:00,32.6,32.1,30.07,North,0,0.0,0.0,98,0.00,,,0.00,LWC V2.00 B2112,2013-02-11 10:30:00,
2013-02-11 02:40:00,32.6,32.1,30.07,North,0,0.0,0.0,98,0.00,,,0.00,LWC V2.00 B2112,2013-02-11 10:40:00,
2013-02-11 02:50:00,32.6,32.1,30.07,North,0,0.0,0.0,98,0.00,,,0.00,LWC V2.00 B2112,2013-02-11 10:50:00,
2013-02-11 03:00:00,32.5,31.7,30.07,North,0,0.0,0.0,97,0.00,,,0.00,LWC V2.00 B2112,2013-02-11 11:00:00,
2013-02-11 03:10:00,32.5,31.7,30.07,North,0,0.0,0.0,97,0.00,,,0.00,LWC V2.00 B2112,2013-02-11 11:10:00,
2013-02-11 03:20:00,32.5,31.7,30.07,North,0,0.0,0.0,97,0.00,,,0.00,LWC V2.00 B2112,2013-02-11 11:20:00,
2013-02-11 03:30:00,32.3,31.8,30.07,North,0,0.0,0.0,98,0.00,,,0.00,LWC V2.00 B2112,2013-02-11 11:30:00,
2013-02-11 03:40:00,32.3,31.8,30.07,North,0,0.0,0.0,98,0.00,,,0.00,LWC V2.00 B2112,2013-02-11 11:40:00,
2013-02-11 03:50:00,32.3,31.8,30.07,North,0,0.0,0.0,98,0.00,,,0.00,LWC V2.00 B2112,2013-02-11 11:50:00,
2013-02-11 04:00:00,32.0,31.5,30.07,North,0,0.0,0.0,98,0.00,,,0.00,LWC V2.00 B2112,2013-02-11 12:00:00,
2013-02-11 04:10:00,32.0,31.5,30.07,North,0,0.0,0.0,98,0.00,,,0.00,LWC V2.00 B2112,2013-02-11 12:10:00,
2013-02-11 04:20:00,32.0,31.5,30.07,North,0,0.0,0.0,98,0.00,,,0.00,LWC V2.00 B2112,2013-02-11 12:20:00,
2013-02-11 04:30:00,32.0,31.5,30.07,North,0,0.0,0.0,98,0.00,,,0.00,LWC V2.00 B2112,2013-02-11 12:30:00,
2013-02-11 04:40:00,32.0,31.5,30.07,North,0,0.0,0.0,98,0.00,,,0.00,LWC V2.00 B2112,2013-02-11 12:40:00,
2013-02-11 04:50:00,32.0,31.5,30.07,North,0,0.0,0.0,98,0.00,,,0.00,LWC V2.00 B2112,2013-02-11 12:50:00,
2013-02-11 05:00:00,32.0,31.5,30.07,North,0,0.0,0.0,98,0.00,,,0.00,LWC V2.00 B2112,2013-02-11 13:00:00,
2013-02-11 05:10:00,32.4,31.9,30.08,North,0,0.0,0.0,98,0.00,,,0.00,LWC V2.00 B2112,2013-02-11 13:10:00,
2013-02-11 05:20:00,32.4,31.9,30.08,North,0,0.0,0.0,98,0.00,,,0.00,LWC V2.00 B2112,2013-02-11 13:20:00,
2013-02-11 05:30:00,32.4,31.9,30.08,North,0,0.0,0.0,98,0.00,,,0.00,LWC V2.00 B2112,2013-02-11 13:30:00,
2013-02-11 05:40:00,32.8,32.3,30.08,ENE,68,0.0,1.0,98,0.00,,,0.00,LWC V2.00 B2112,2013-02-11 13:40:00,
2013-02-11 05:50:00,32.8,32.3,30.08,ENE,68,0.0,1.0,98,0.00,,,0.00,LWC V2.00 B2112,2013-02-11 13:50:00,
2013-02-11 06:00:00,32.8,32.3,30.08,ENE,68,0.0,1.0,98,0.00,,,0.00,LWC V2.00 B2112,2013-02-11 14:00:00,
2013-02-11 06:10:00,33.7,33.2,30.09,East,90,0.0,2.0,98,0.00,,,0.00,LWC V2.00 B2112,2013-02-11 14:10:00,
2013-02-11 06:20:00,33.7,33.2,30.09,East,90,0.0,2.0,98,0.00,,,0.00,LWC V2.00 B2112,2013-02-11 14:20:00,
2013-02-11 06:30:00,33.7,33.2,30.09,East,90,0.0,2.0,98,0.00,,,0.00,LWC V2.00 B2112,2013-02-11 14:30:00,
2013-02-11 06:40:00,33.5,33.0,30.09,North,0,0.0,0.0,98,0.00,,,0.00,LWC V2.00 B2112,2013-02-11 14:40:00,
2013-02-11 06:50:00,33.5,33.0,30.09,North,0,0.0,0.0,98,0.00,,,0.00,LWC V2.00 B2112,2013-02-11 14:50:00,
2013-02-11 07:00:00,33.5,33.0,30.09,North,0,0.0,0.0,98,0.00,,,0.00,LWC V2.00 B2112,2013-02-11 15:00:00,
2013-02-11 07:17:00,34.9,34.4,30.10,ESE,119,0.0,0.0,98,0.00,,,0.00,LWC V2.00 B2112,2013-02-11 15:17:00,
2013-02-11 07:22:00,34.8,34.3,30.10,SSE,167,0.0,1.0,98,0.00,,,0.00,LWC V2.00 B2112,2013-02-11 15:22:00,
2013-02-11 07:27:00,35.0,34.5,30.11,SW,215,0.0,0.0,98,0.00,,,0.00,LWC V2.00 B2112,2013-02-11 15:27:00,
2013-02-11 07:32:00,35.2,34.7,30.11,SW,214,0.0,0.0,98,0.00,,,0.00,LWC V2.00 B2112,2013-02-11 15:32:00,
2013-02-11 07:37:00,35.4,34.9,30.11,SW,214,0.0,0.0,98,0.00,,,0.00,LWC V2.00 B2112,2013-02-11 15:37:00,
2013-02-11 07:42:00,35.6,35.1,30.12,SSW,211,0.0,0.0,98,0.00,,,0.00,LWC V2.00 B2112,2013-02-11 15:42:00,
2013-02-11 07:47:00,35.8,35.3,30.12,SW,214,0.0,0.0,98,0.00,,,0.00,LWC V2.00 B2112,2013-02-11 15:47:00,
2013-02-11 07:52:00,35.8,35.3,30.13,ESE,108,0.0,0.0,98,0.00,,,0.00,LWC V2.00 B2112,2013-02-11 15:52:00,
2013-02-11 07:57:00,35.9,35.4,30.13,NNW,335,0.0,0.0,98,0.00,,,0.00,LWC V2.00 B2112,2013-02-11 15:57:00,
2013-02-11 08:02:00,36.1,35.6,30.13,SSW,205,0.0,0.0,98,0.00,,,0.00,LWC V2.00 B2112,2013-02-11 16:02:00,
2013-02-11 08:07:00,36.2,35.7,30.13,SSW,205,0.0,0.0,98,0.00,,,0.00,LWC V2.00 B2112,2013-02-11 16:07:00,
2013-02-11 08:12:00,36.2,35.7,30.14,SSW,205,0.0,0.0,98,0.00,,,0.00,LWC V2.00 B2112,2013-02-11 16:12:00,
2013-02-11 08:17:00,36.3,35.8,30.14,SSW,206,0.0,0.0,98,0.00,,,0.00,LWC V2.00 B2112,2013-02-11 16:17:00,
2013-02-11 08:22:00,36.7,36.4,30.14,ESE,115,0.0,0.0,99,0.00,,,0.00,LWC V2.00 B2112,2013-02-11 16:22:00,
2013-02-11 08:27:00,37.1,36.8,30.14,SE,132,0.0,0.0,99,0.00,,,0.00,LWC V2.00 B2112,2013-02-11 16:27:00,
2013-02-11 08:32:00,37.3,37.0,30.14,South,185,0.0,0.0,99,0.00,,,0.00,LWC V2.00 B2112,2013-02-11 16:32:00,
2013-02-11 08:37:00,37.5,37.2,30.14,SSE,150,0.0,0.0,99,0.00,,,0.00,LWC V2.00 B2112,2013-02-11 16:37:00,
2013-02-11 08:42:00,37.5,37.2,30.14,SSE,150,0.0,0.0,99,0.00,,,0.00,LWC V2.00 B2112,2013-02-11 16:42:00,
2013-02-11 08:47:00,37.8,37.5,30.14,SSE,149,0.0,0.0,99,0.00,,,0.00,LWC V2.00 B2112,2013-02-11 16:47:00,
2013-02-11 08:52:00,37.9,37.6,30.15,SSE,149,0.0,0.0,99,0.00,,,0.00,LWC V2.00 B2112,2013-02-11 16:52:00,
2013-02-11 08:57:00,38.3,38.0,30.15,SSE,150,0.0,0.0,99,0.00,,,0.00,LWC V2.00 B2112,2013-02-11 16:57:00,
2013-02-11 09:02:00,38.8,38.5,30.15,SSE,149,0.0,0.0,99,0.00,,,0.00,LWC V2.00 B2112,2013-02-11 17:02:00,
2013-02-11 09:07:00,39.1,38.8,30.15,SSE,149,0.0,0.0,99,0.00,,,0.00,LWC V2.00 B2112,2013-02-11 17:07:00,
2013-02-11 09:12:00,39.5,39.2,30.15,SSE,163,0.0,0.0,99,0.00,,,0.00,LWC V2.00 B2112,2013-02-11 17:12:00,
2013-02-11 09:17:00,39.9,39.6,30.15,SSE,165,0.0,0.0,99,0.00,,,0.00,LWC V2.00 B2112,2013-02-11 17:17:00,
2013-02-11 09:22:00,40.3,40.0,30.15,SSE,165,0.0,0.0,99,0.00,,,0.00,LWC V2.00 B2112,2013-02-11 17:22:00,
2013-02-11 09:27:00,40.8,40.5,30.15,SSE,165,0.0,0.0,99,0.00,,,0.00,LWC V2.00 B2112,2013-02-11 17:27:00,
2013-02-11 09:32:00,41.2,40.9,30.15,SSE,152,0.0,0.0,99,0.00,,,0.00,LWC V2.00 B2112,2013-02-11 17:32:00,
2013-02-11 09:37:00,41.7,41.4,30.16,SSE,150,0.0,0.0,99,0.00,,,0.00,LWC V2.00 B2112,2013-02-11 17:37:00,
2013-02-11 09:42:00,42.4,42.1,30.16,SSE,167,0.0,0.0,99,0.00,,,0.00,LWC V2.00 B2112,2013-02-11 17:42:00,
2013-02-11 09:47:00,42.8,42.5,30.15,SSE,162,0.0,0.0,99,0.00,,,0.00,LWC V2.00 B2112,2013-02-11 17:47:00,
2013-02-11 09:52:00,43.3,43.0,30.16,SSE,160,1.0,1.0,99,0.00,,,0.00,LWC V2.00 B2112,2013-02-11 17:52:00,
2013-02-11 09:57:00,43.9,43.6,30.16,SSW,194,1.0,2.0,99,0.00,,,0.00,LWC V2.00 B2112,2013-02-11 17:57:00,
2013-02-11 10:02:00,44.4,44.1,30.16,SSE,166,1.0,3.0,99,0.00,,,0.00,LWC V2.00 B2112,2013-02-11 18:02:00,
2013-02-11 10:07:00,45.1,44.8,30.16,SSW,195,0.0,1.0,99,0.00,,,0.00,LWC V2.00 B2112,2013-02-11 18:07:00,
2013-02-11 10:12:00,45.5,45.0,30.16,SSW,193,0.0,1.0,98,0.00,,,0.01,LWC V2.00 B2112,2013-02-11 18:12:00,
2013-02-11 10:17:00,46.3,44.9,30.16,SSE,147,1.0,2.0,95,0.00,,,0.01,LWC V2.00 B2112,2013-02-11 18:17:00,
2013-02-11 10:22:00,48.2,43.9,30.16,SSW,204,1.0,1.0,85,0.00,,,0.01,LWC V2.00 B2112,2013-02-11 18:22:00,
2013-02-11 10:27:00,49.1,43.8,30.16,SSW,194,1.0,2.0,82,0.00,,,0.01,LWC V2.00 B2112,2013-02-11 18:27:00,
2013-02-11 10:32:00,49.3,43.4,30.16,SSE,148,0.0,1.0,80,0.00,,,0.01,LWC V2.00 B2112,2013-02-11 18:32:00,
2013-02-11 10:37:00,50.0,42.4,30.16,SSE,155,1.0,2.0,75,0.00,,,0.01,LWC V2.00 B2112,2013-02-11 18:37:00,
2013-02-11 10:42:00,50.7,42.7,30.16,SSW,208,1.0,1.0,74,0.00,,,0.01,LWC V2.00 B2112,2013-02-11 18:42:00,
2013-02-11 10:47:00,51.0,42.3,30.16,SSE,154,1.0,1.0,72,0.00,,,0.01,LWC V2.00 B2112,2013-02-11 18:47:00,
2013-02-11 10:52:00,51.0,42.3,30.16,ESE,110,0.0,1.0,72,0.00,,,0.01,LWC V2.00 B2112,2013-02-11 18:52:00,
2013-02-11 10:53:00,51.2,41.4,30.16,South,172,0.0,0.0,69,0.00,,,0.01,LWC V2.00 B2112,2013-02-11 18:53:00,
2013-02-11 10:58:00,52.9,41.9,30.16,SSW,194,1.0,2.0,66,0.00,,,0.01,LWC V2.00 B2112,2013-02-11 18:58:00,
2013-02-11 11:03:00,53.2,43.3,30.16,SSE,163,0.0,0.0,69,0.00,,,0.01,LWC V2.00 B2112,2013-02-11 19:03:00,
2013-02-11 11:08:00,53.4,40.3,30.16,SSW,210,1.0,2.0,61,0.00,,,0.01,LWC V2.00 B2112,2013-02-11 19:08:00,
2013-02-11 11:13:00,54.9,39.5,30.15,SSW,199,1.0,2.0,56,0.00,,,0.01,LWC V2.00 B2112,2013-02-11 19:13:00,
2013-02-11 11:18:00,55.4,42.2,30.15,South,169,0.0,0.0,61,0.00,,,0.01,LWC V2.00 B2112,2013-02-11 19:18:00,
2013-02-11 11:23:00,55.8,38.9,30.16,South,169,1.0,3.0,53,0.00,,,0.01,LWC V2.00 B2112,2013-02-11 19:23:00,
2013-02-11 11:28:00,56.9,37.4,30.15,SSE,150,1.0,2.0,48,0.00,,,0.01,LWC V2.00 B2112,2013-02-11 19:28:00,
2013-02-11 11:33:00,56.7,40.2,30.15,SE,127,1.0,3.0,54,0.00,,,0.01,LWC V2.00 B2112,2013-02-11 19:33:00,
2013-02-11 11:38:00,57.2,38.7,30.15,South,173,1.0,4.0,50,0.00,,,0.01,LWC V2.00 B2112,2013-02-11 19:38:00,
2013-02-11 11:43:00,57.4,41.4,30.15,South,187,0.0,2.0,55,0.00,,,0.01,LWC V2.00 B2112,2013-02-11 19:43:00,
2013-02-11 11:48:00,57.3,40.8,30.15,SE,146,1.0,1.0,54,0.00,,,0.01,LWC V2.00 B2112,2013-02-11 19:48:00,
2013-02-11 11:53:00,56.8,40.3,30.14,SSE,157,0.0,0.0,54,0.00,,,0.01,LWC V2.00 B2112,2013-02-11 19:53:00,
2013-02-11 11:58:00,57.1,41.6,30.14,SW,217,1.0,2.0,56,0.00,,,0.01,LWC V2.00 B2112,2013-02-11 19:58:00,
2013-02-11 12:03:00,57.8,38.8,30.14,SE,134,0.0,2.0,49,0.00,,,0.01,LWC V2.00 B2112,2013-02-11 20:03:00,
2013-02-11 12:08:00,58.6,37.3,30.14,SSW,206,1.0,5.0,45,0.00,,,0.01,LWC V2.00 B2112,2013-02-11 20:08:00,
2013-02-11 12:13:00,58.8,41.2,30.14,West,262,3.0,3.0,52,0.00,,,0.01,LWC V2.00 B2112,2013-02-11 20:13:00,
2013-02-11 12:18:00,59.1,38.9,30.14,ESE,113,1.0,4.0,47,0.00,,,0.01,LWC V2.00 B2112,2013-02-11 20:18:00,
2013-02-11 12:23:00,59.6,43.4,30.13,South,173,0.0,3.0,55,0.00,,,0.01,LWC V2.00 B2112,2013-02-11 20:23:00,
2013-02-11 12:28:00,59.3,40.7,30.13,South,181,0.0,2.0,50,0.00,,,0.01,LWC V2.00 B2112,2013-02-11 20:28:00,
2013-02-11 12:33:00,59.2,42.6,30.13,SE,141,1.0,1.0,54,0.00,,,0.01,LWC V2.00 B2112,2013-02-11 20:33:00,
2013-02-11 12:38:00,58.8,45.8,30.13,SSE,155,0.0,1.0,62,0.00,,,0.01,LWC V2.00 B2112,2013-02-11 20:38:00,
2013-02-11 12:43:00,58.5,45.1,30.13,East,90,0.0,0.0,61,0.00,,,0.01,LWC V2.00 B2112,2013-02-11 20:43:00,
2013-02-11 12:48:00,59.5,42.4,30.13,SE,128,0.0,1.0,53,0.00,,,0.01,LWC V2.00 B2112,2013-02-11 20:48:00,
2013-02-11 12:53:00,60.1,44.8,30.13,SSW,211,0.0,1.0,57,0.00,,,0.01,LWC V2.00 B2112,2013-02-11 20:53:00,
2013-02-11 12:58:00,60.3,41.6,30.12,SSE,148,1.0,1.0,50,0.00,,,0.01,LWC V2.00 B2112,2013-02-11 20:58:00,
2013-02-11 13:03:00,60.5,41.2,30.12,SE,130,1.0,3.0,49,0.00,,,0.01,LWC V2.00 B2112,2013-02-11 21:03:00,
2013-02-11 13:08:00,60.6,42.9,30.12,SW,215,3.0,3.0,52,0.00,,,0.01,LWC V2.00 B2112,2013-02-11 21:08:00,
2013-02-11 13:13:00,60.9,43.2,30.12,ESE,114,1.0,1.0,52,0.00,,,0.01,LWC V2.00 B2112,2013-02-11 21:13:00,
2013-02-11 13:18:00,61.1,40.7,30.12,SE,142,0.0,2.0,47,0.00,,,0.01,LWC V2.00 B2112,2013-02-11 21:18:00,
2013-02-11 13:23:00,61.2,40.8,30.12,East,91,1.0,1.0,47,0.00,,,0.01,LWC V2.00 B2112,2013-02-11 21:23:00,
2013-02-11 13:28:00,61.4,39.9,30.12,SSW,211,1.0,3.0,45,0.00,,,0.01,LWC V2.00 B2112,2013-02-11 21:28:00,
2013-02-11 13:33:00,61.4,40.4,30.12,South,170,2.0,3.0,46,0.00,,,0.01,LWC V2.00 B2112,2013-02-11 21:33:00,
2013-02-11 13:38:00,61.5,38.8,30.12,SW,221,2.0,4.0,43,0.00,,,0.01,LWC V2.00 B2112,2013-02-11 21:38:00,
2013-02-11 13:43:00,61.7,41.8,30.12,SSW,207,0.0,1.0,48,0.00,,,0.01,LWC V2.00 B2112,2013-02-11 21:43:00,
2013-02-11 13:48:00,61.5,41.1,30.12,South,183,2.0,3.0,47,0.00,,,0.01,LWC V2.00 B2112,2013-02-11 21:48:00,
2013-02-11 13:53:00,61.3,42.5,30.11,SSE,155,0.0,2.0,50,0.00,,,0.01,LWC V2.00 B2112,2013-02-11 21:53:00,
2013-02-11 13:58:00,61.0,41.2,30.11,SSE,153,0.0,1.0,48,0.00,,,0.01,LWC V2.00 B2112,2013-02-11 21:58:00,
2013-02-11 14:03:00,60.9,41.6,30.11,SE,127,1.0,2.0,49,0.00,,,0.01,LWC V2.00 B2112,2013-02-11 22:03:00,
2013-02-11 14:08:00,60.7,39.8,30.11,ENE,70,0.0,2.0,46,0.00,,,0.01,LWC V2.00 B2112,2013-02-11 22:08:00,
2013-02-11 14:13:00,60.7,40.3,30.11,SE,129,0.0,1.0,47,0.00,,,0.01,LWC V2.00 B2112,2013-02-11 22:13:00,
2013-02-11 14:18:00,60.6,39.7,30.11,SSW,198,0.0,5.0,46,0.00,,,0.01,LWC V2.00 B2112,2013-02-11 22:18:00,
2013-02-11 14:23:00,60.4,41.7,30.11,WNW,298,2.0,3.0,50,0.00,,,0.01,LWC V2.00 B2112,2013-02-11 22:23:00,
2013-02-11 14:28:00,60.1,40.9,30.11,ESE,120,2.0,2.0,49,0.00,,,0.01,LWC V2.00 B2112,2013-02-11 22:28:00,
2013-02-11 14:33:00,59.7,40.5,30.11,NW,317,5.0,5.0,49,0.00,,,0.01,LWC V2.00 B2112,2013-02-11 22:33:00,
2013-02-11 14:38:00,59.4,42.3,30.11,SSW,201,0.0,0.0,53,0.00,,,0.01,LWC V2.00 B2112,2013-02-11 22:38:00,
2013-02-11 14:43:00,59.1,42.0,30.11,NW,311,1.0,4.0,53,0.00,,,0.01,LWC V2.00 B2112,2013-02-11 22:43:00,
2013-02-11 14:48:00,59.3,43.6,30.11,NNW,328,1.0,4.0,56,0.00,,,0.01,LWC V2.00 B2112,2013-02-11 22:48:00,
2013-02-11 14:53:00,59.0,45.1,30.11,NE,36,0.0,1.0,60,0.00,,,0.01,LWC V2.00 B2112,2013-02-11 22:53:00,
2013-02-11 14:58:00,58.4,47.5,30.12,West,269,1.0,4.0,67,0.00,,,0.01,LWC V2.00 B2112,2013-02-11 22:58:00,
2013-02-11 15:03:00,57.4,48.8,30.12,ENE,67,1.0,2.0,73,0.00,,,0.01,LWC V2.00 B2112,2013-02-11 23:03:00,
2013-02-11 15:08:00,56.7,48.9,30.12,ESE,115,1.0,3.0,75,0.00,,,0.01,LWC V2.00 B2112,2013-02-11 23:08:00,
2013-02-11 15:13:00,56.0,48.9,30.12,SSW,193,2.0,3.0,77,0.00,,,0.01,LWC V2.00 B2112,2013-02-11 23:13:00,
2013-02-11 15:18:00,55.7,49.3,30.12,SSE,167,1.0,2.0,79,0.00,,,0.01,LWC V2.00 B2112,2013-02-11 23:18:00,
2013-02-11 15:23:00,55.3,49.2,30.11,SSW,212,4.0,4.0,80,0.00,,,0.01,LWC V2.00 B2112,2013-02-11 23:23:00,
2013-02-11 15:28:00,54.9,49.2,30.12,SSE,158,2.0,4.0,81,0.00,,,0.01,LWC V2.00 B2112,2013-02-11 23:28:00,
2013-02-11 15:33:00,54.6,49.5,30.11,ESE,109,1.0,3.0,83,0.00,,,0.01,LWC V2.00 B2112,2013-02-11 23:33:00,
2013-02-11 15:38:00,54.6,49.5,30.11,WNW,297,1.0,1.0,83,0.00,,,0.01,LWC V2.00 B2112,2013-02-11 23:38:00,
2013-02-11 15:43:00,54.5,49.4,30.11,South,173,1.0,3.0,83,0.00,,,0.01,LWC V2.00 B2112,2013-02-11 23:43:00,
2013-02-11 15:48:00,54.3,49.6,30.11,West,276,0.0,2.0,84,0.00,,,0.01,LWC V2.00 B2112,2013-02-11 23:48:00,
2013-02-11 15:53:00,54.0,49.3,30.12,SSW,197,2.0,4.0,84,0.00,,,0.01,LWC V2.00 B2112,2013-02-11 23:53:00,
2013-02-11 15:58:00,53.7,49.0,30.12,SSE,148,2.0,3.0,84,0.00,,,0.01,LWC V2.00 B2112,2013-02-11 23:58:00,
2013-02-11 16:03:00,53.5,48.8,30.12,SE,134,0.0,2.0,84,0.00,,,0.01,LWC V2.00 B2112,2013-02-12 00:03:00,
2013-02-11 16:08:00,53.2,48.5,30.12,SSE,153,1.0,2.0,84,0.00,,,0.01,LWC V2.00 B2112,2013-02-12 00:08:00,
2013-02-11 16:13:00,52.9,48.2,30.12,SSE,158,2.0,2.0,84,0.00,,,0.01,LWC V2.00 B2112,2013-02-12 00:13:00,
2013-02-11 16:18:00,52.7,48.0,30.12,ESE,109,2.0,3.0,84,0.00,,,0.01,LWC V2.00 B2112,2013-02-12 00:18:00,
2013-02-11 16:23:00,52.6,47.6,30.12,ESE,115,0.0,3.0,83,0.00,,,0.01,LWC V2.00 B2112,2013-02-12 00:23:00,
2013-02-11 16:28:00,52.4,47.4,30.13,SSE,147,0.0,1.0,83,0.00,,,0.01,LWC V2.00 B2112,2013-02-12 00:28:00,
2013-02-11 16:33:00,52.2,47.2,30.13,East,97,0.0,1.0,83,0.00,,,0.01,LWC V2.00 B2112,2013-02-12 00:33:00,
2013-02-11 16:38:00,52.1,47.1,30.13,East,93,1.0,1.0,83,0.00,,,0.01,LWC V2.00 B2112,2013-02-12 00:38:00,
2013-02-11 16:43:00,51.9,46.9,30.13,SE,146,3.0,3.0,83,0.00,,,0.01,LWC V2.00 B2112,2013-02-12 00:43:00,
2013-02-11 16:48:00,51.8,47.1,30.13,ESE,105,2.0,3.0,84,0.00,,,0.01,LWC V2.00 B2112,2013-02-12 00:48:00,
2013-02-11 16:53:00,51.6,47.2,30.13,East,101,2.0,3.0,85,0.00,,,0.01,LWC V2.00 B2112,2013-02-12 00:53:00,
2013-02-11 16:58:00,51.5,47.5,30.13,East,94,0.0,2.0,86,0.00,,,0.01,LWC V2.00 B2112,2013-02-12 00:58:00,
2013-02-11 17:03:00,51.2,47.2,30.13,East,91,0.0,0.0,86,0.00,,,0.01,LWC V2.00 B2112,2013-02-12 01:03:00,
2013-02-11 17:08:00,50.7,46.7,30.13,South,190,0.0,1.0,86,0.00,,,0.01,LWC V2.00 B2112,2013-02-12 01:08:00,
2013-02-11 17:13:00,50.3,46.6,30.13,South,188,0.0,0.0,87,0.00,,,0.01,LWC V2.00 B2112,2013-02-12 01:13:00,
2013-02-11 17:18:00,49.7,46.0,30.13,South,188,0.0,0.0,87,0.00,,,0.01,LWC V2.00 B2112,2013-02-12 01:18:00,
2013-02-11 17:23:00,49.3,45.9,30.13,South,179,0.0,0.0,88,0.00,,,0.01,LWC V2.00 B2112,2013-02-12 01:23:00,
2013-02-11 17:28:00,48.8,45.7,30.13,South,179,0.0,0.0,89,0.00,,,0.01,LWC V2.00 B2112,2013-02-12 01:28:00,
2013-02-11 17:33:00,48.4,45.3,30.13,South,179,0.0,0.0,89,0.00,,,0.01,LWC V2.00 B2112,2013-02-12 01:33:00,
2013-02-11 17:38:00,48.1,45.3,30.13,South,179,0.0,0.0,90,0.00,,,0.01,LWC V2.00 B2112,2013-02-12 01:38:00,
2013-02-11 17:43:00,47.7,44.9,30.14,South,179,0.0,0.0,90,0.00,,,0.01,LWC V2.00 B2112,2013-02-12 01:43:00,
2013-02-11 17:48:00,47.2,44.4,30.14,South,180,0.0,0.0,90,0.00,,,0.01,LWC V2.00 B2112,2013-02-12 01:48:00,
2013-02-11 17:53:00,46.6,43.8,30.14,South,179,0.0,0.0,90,0.00,,,0.01,LWC V2.00 B2112,2013-02-12 01:53:00,
2013-02-11 17:58:00,46.0,43.2,30.14,South,179,0.0,0.0,90,0.00,,,0.01,LWC V2.00 B2112,2013-02-12 01:58:00,
2013-02-11 18:03:00,45.6,43.1,30.14,South,179,0.0,0.0,91,0.00,,,0.01,LWC V2.00 B2112,2013-02-12 02:03:00,
2013-02-11 18:08:00,45.1,42.6,30.15,South,180,0.0,0.0,91,0.00,,,0.01,LWC V2.00 B2112,2013-02-12 02:08:00,
2013-02-11 18:13:00,44.7,42.2,30.15,South,181,0.0,0.0,91,0.00,,,0.01,LWC V2.00 B2112,2013-02-12 02:13:00,
2013-02-11 18:18:00,44.2,41.7,30.15,South,180,0.0,0.0,91,0.00,,,0.01,LWC V2.00 B2112,2013-02-12 02:18:00,
2013-02-11 18:23:00,43.7,41.2,30.15,South,180,0.0,0.0,91,0.00,,,0.01,LWC V2.00 B2112,2013-02-12 02:23:00,
2013-02-11 18:28:00,43.3,41.1,30.15,South,179,0.0,0.0,92,0.00,,,0.01,LWC V2.00 B2112,2013-02-12 02:28:00,
2013-02-11 18:33:00,43.0,40.8,30.15,South,180,0.0,0.0,92,0.00,,,0.01,LWC V2.00 B2112,2013-02-12 02:33:00,
2013-02-11 18:38:00,42.5,40.3,30.15,South,181,0.0,0.0,92,0.00,,,0.01,LWC V2.00 B2112,2013-02-12 02:38:00,
2013-02-11 18:43:00,42.3,40.4,30.15,South,180,0.0,0.0,93,0.00,,,0.01,LWC V2.00 B2112,2013-02-12 02:43:00,
2013-02-11 18:48:00,41.9,40.0,30.15,South,180,0.0,0.0,93,0.00,,,0.01,LWC V2.00 B2112,2013-02-12 02:48:00,
2013-02-11 18:53:00,41.6,39.7,30.15,South,179,0.0,0.0,93,0.00,,,0.01,LWC V2.00 B2112,2013-02-12 02:53:00,
2013-02-11 18:58:00,41.4,39.5,30.15,South,181,0.0,0.0,93,0.00,,,0.01,LWC V2.00 B2112,2013-02-12 02:58:00,
2013-02-11 19:03:00,41.3,39.7,30.15,South,179,0.0,0.0,94,0.00,,,0.01,LWC V2.00 B2112,2013-02-12 03:03:00,
2013-02-11 19:08:00,41.0,39.4,30.16,South,180,0.0,0.0,94,0.00,,,0.01,LWC V2.00 B2112,2013-02-12 03:08:00,
2013-02-11 19:13:00,40.7,39.1,30.16,South,180,0.0,0.0,94,0.00,,,0.01,LWC V2.00 B2112,2013-02-12 03:13:00,
2013-02-11 19:18:00,40.5,38.9,30.16,South,180,0.0,0.0,94,0.00,,,0.01,LWC V2.00 B2112,2013-02-12 03:18:00,
2013-02-11 19:23:00,40.4,38.8,30.16,South,180,0.0,0.0,94,0.00,,,0.01,LWC V2.00 B2112,2013-02-12 03:23:00,
2013-02-11 19:28:00,40.1,38.5,30.16,South,179,0.0,0.0,94,0.00,,,0.01,LWC V2.00 B2112,2013-02-12 03:28:00,
2013-02-11 19:33:00,39.8,38.2,30.16,South,181,0.0,0.0,94,0.00,,,0.01,LWC V2.00 B2112,2013-02-12 03:33:00,
2013-02-11 19:38:00,39.6,38.0,30.16,South,180,0.0,0.0,94,0.00,,,0.01,LWC V2.00 B2112,2013-02-12 03:38:00,
2013-02-11 19:43:00,39.5,38.2,30.16,South,179,0.0,0.0,95,0.00,,,0.01,LWC V2.00 B2112,2013-02-12 03:43:00,
2013-02-11 19:48:00,39.6,38.3,30.17,South,181,0.0,0.0,95,0.00,,,0.01,LWC V2.00 B2112,2013-02-12 03:48:00,
2013-02-11 19:53:00,39.5,38.2,30.16,South,179,0.0,0.0,95,0.00,,,0.01,LWC V2.00 B2112,2013-02-12 03:53:00,
2013-02-11 19:58:00,39.3,38.0,30.17,South,180,0.0,0.0,95,0.00,,,0.01,LWC V2.00 B2112,2013-02-12 03:58:00,
2013-02-11 20:03:00,39.2,37.9,30.17,South,180,0.0,0.0,95,0.00,,,0.01,LWC V2.00 B2112,2013-02-12 04:03:00,
2013-02-11 20:08:00,39.0,37.7,30.17,South,181,0.0,0.0,95,0.00,,,0.01,LWC V2.00 B2112,2013-02-12 04:08:00,
2013-02-11 20:13:00,38.9,37.6,30.17,South,181,0.0,0.0,95,0.00,,,0.01,LWC V2.00 B2112,2013-02-12 04:13:00,
2013-02-11 20:18:00,38.8,37.5,30.17,South,179,0.0,0.0,95,0.00,,,0.01,LWC V2.00 B2112,2013-02-12 04:18:00,
2013-02-11 20:23:00,38.8,37.5,30.17,South,179,0.0,0.0,95,0.00,,,0.01,LWC V2.00 B2112,2013-02-12 04:23:00,
2013-02-11 20:28:00,38.7,37.4,30.17,South,180,0.0,0.0,95,0.00,,,0.01,LWC V2.00 B2112,2013-02-12 04:28:00,
2013-02-11 20:33:00,38.4,37.1,30.17,South,180,0.0,0.0,95,0.00,,,0.01,LWC V2.00 B2112,2013-02-12 04:33:00,
2013-02-11 20:38:00,38.3,37.0,30.17,South,180,0.0,0.0,95,0.00,,,0.01,LWC V2.00 B2112,2013-02-12 04:38:00,
2013-02-11 20:43:00,38.1,37.1,30.17,South,180,0.0,0.0,96,0.00,,,0.01,LWC V2.00 B2112,2013-02-12 04:43:00,
2013-02-11 20:48:00,37.9,36.9,30.17,South,180,0.0,0.0,96,0.00,,,0.01,LWC V2.00 B2112,2013-02-12 04:48:00,
2013-02-11 20:53:00,37.8,36.8,30.17,South,180,0.0,0.0,96,0.00,,,0.01,LWC V2.00 B2112,2013-02-12 04:53:00,
2013-02-11 20:58:00,37.6,36.6,30.18,South,179,0.0,0.0,96,0.00,,,0.01,LWC V2.00 B2112,2013-02-12 04:58:00,
2013-02-11 21:00:00,37.6,36.6,30.18,South,181,0.0,0.0,96,0.00,,,0.01,LWC V2.00 B2112,2013-02-12 05:00:00,
2013-02-11 21:05:00,37.5,36.5,30.18,South,181,0.0,0.0,96,0.00,,,0.01,LWC V2.00 B2112,2013-02-12 05:05:00,
2013-02-11 21:10:00,37.6,36.6,30.18,South,179,0.0,0.0,96,0.00,,,0.01,LWC V2.00 B2112,2013-02-12 05:10:00,
2013-02-11 21:15:00,37.5,36.5,30.18,South,180,0.0,0.0,96,0.00,,,0.01,LWC V2.00 B2112,2013-02-12 05:15:00,
2013-02-11 21:16:00,37.5,36.5,30.18,South,180,0.0,0.0,96,0.00,,,0.01,LWC V2.00 B2112,2013-02-12 05:16:00,
2013-02-11 21:21:00,37.3,36.3,30.18,South,181,0.0,0.0,96,0.00,,,0.01,LWC V2.00 B2112,2013-02-12 05:21:00,
2013-02-11 21:26:00,37.3,36.3,30.18,South,180,0.0,0.0,96,0.00,,,0.01,LWC V2.00 B2112,2013-02-12 05:26:00,
2013-02-11 21:31:00,37.1,36.1,30.18,South,181,0.0,0.0,96,0.00,,,0.01,LWC V2.00 B2112,2013-02-12 05:31:00,
2013-02-11 21:36:00,37.0,36.0,30.18,South,180,0.0,0.0,96,0.00,,,0.01,LWC V2.00 B2112,2013-02-12 05:36:00,
2013-02-11 21:40:00,36.9,35.9,30.18,South,180,0.0,0.0,96,0.00,,,0.00,LWC V2.00 B2112,2013-02-12 05:40:00,
2013-02-11 21:41:00,36.9,35.9,30.18,South,180,0.0,0.0,96,0.00,,,0.01,LWC V2.00 B2112,2013-02-12 05:41:00,
2013-02-11 21:50:00,37.1,36.1,30.18,North,0,0.0,0.0,96,0.00,,,0.00,LWC V2.00 B2112,2013-02-12 05:50:00,
2013-02-11 22:00:00,37.7,36.9,30.18,North,0,0.0,0.0,97,0.00,,,0.00,LWC V2.00 B2112,2013-02-12 06:00:00,
2013-02-11 22:10:00,37.7,36.9,30.18,North,0,0.0,0.0,97,0.00,,,0.00,LWC V2.00 B2112,2013-02-12 06:10:00,
2013-02-11 22:20:00,37.7,36.9,30.18,North,0,0.0,0.0,97,0.00,,,0.00,LWC V2.00 B2112,2013-02-12 06:20:00,
2013-02-11 22:30:00,37.1,36.1,30.19,North,0,0.0,0.0,96,0.00,,,0.00,LWC V2.00 B2112,2013-02-12 06:30:00,
2013-02-11 22:40:00,37.1,36.1,30.19,North,0,0.0,0.0,96,0.00,,,0.00,LWC V2.00 B2112,2013-02-12 06:40:00,
2013-02-11 22:50:00,37.1,36.1,30.19,North,0,0.0,0.0,96,0.00,,,0.00,LWC V2.00 B2112,2013-02-12 06:50:00,
2013-02-11 23:00:00,36.1,35.3,30.19,North,0,0.0,0.0,97,0.00,,,0.00,LWC V2.00 B2112,2013-02-12 07:00:00,
2013-02-11 23:10:00,36.1,35.3,30.19,North,0,0.0,0.0,97,0.00,,,0.00,LWC V2.00 B2112,2013-02-12 07:10:00,
2013-02-11 23:20:00,36.1,35.3,30.19,North,0,0.0,0.0,97,0.00,,,0.00,LWC V2.00 B2112,2013-02-12 07:20:00,
2013-02-11 23:30:00,35.5,34.7,30.19,North,0,0.0,0.0,97,0.00,,,0.00,LWC V2.00 B2112,2013-02-12 07:30:00,
2013-02-11 23:40:00,35.5,34.7,30.19,North,0,0.0,0.0,97,0.00,,,0.00,LWC V2.00 B2112,2013-02-12 07:40:00,
2013-02-11 23:50:00,35.5,34.7,30.19,North,0,0.0,0.0,97,0.00,,,0.00,LWC V2.00 B2112,2013-02-12 07:50:00,